Location: Madrid
(40.4000°N, 3.6830°W)
Time: 22:49:42
(UTC+01:00)

ISS - Pass Details

Date: 15 January 2018
Orbit: 402 x 407 km, 51.6° (Epoch: 23 January)

Event Time Altitude Azimuth Distance (km) Brightness Sun altitude
Exits shadow 06:59:14 63° 281° (WNW) 457 -3.9 -18.1°
Maximum altitude 06:59:39 77° 220° (SW) 420 -3.9 -18.0°
Drops below altitude 10° 07:02:55 10° 133° (SE) 1,459 -0.1 -17.4°
Sets 07:05:00 0° 131° (SE) 2,316 1.1 -17.0°
